Regional Weather Roundup
Issued by NWS San Diego, CA

Home | Current Version | Previous Version | Text Only | Print | Product List | Glossary On
Versions: 1 2 3 4 5 6 7 8 9 10 11 12 13 14 15 16 17 18 19 20 21 22 23 24 25 26 27 28 29 30 31 32 33 34 35 36 37 38 39 40 41 42 43 44 45 46 47 48 49 50
763
ASUS46 KSGX 241611
RWRSGX

SAN DIEGO HOURLY WEATHER ROUNDUP
NATIONAL WEATHER SERVICE SAN DIEGO CA
900 AM PDT FRI MAR 24 2017

NOTE: "FAIR" INDICATES FEW OR NO CLOUDS BELOW 12,000 FEET WITH NO
SIGNIFICANT WEATHER AND/OR OBSTRUCTIONS TO VISIBILITY.

CAZ042-043-060-061-PZZ750-775-241700-

GREATER SAN DIEGO AREA

CITY           SKY/WX    TMP DP  RH WIND       PRES   REMARKS
SAN DIEGO AP   SUNNY     57  46  66 CALM      30.26S
NATIONAL CITY    N/A     53  49  85 CALM      30.26R
CHULA VISTA      N/A     56  50  79 E2        30.17S
IMPERIAL BEACH MOSUNNY   57  47  69 E6        30.25S
BROWN FIELD    SUNNY     55  47  74 SE3       30.24S
MIRAMAR MCAS   MOSUNNY   60  46  59 CALM      30.24S
MONTGOMERY FLD SUNNY     56  46  69 CALM      30.24S

$$

NORTH SAN DIEGO COUNTY

CITY           SKY/WX    TMP DP  RH WIND       PRES   REMARKS
CAMP PENDLETON SUNNY     51  48  89 CALM      30.26R
OCEANSIDE AP   SUNNY     55  47  74 E5        30.25S
OCEANSIDE HBR    N/A     54  48  80 SE6       30.27S
VISTA            N/A     50  45  83 CALM      30.24S
CARLSBAD       SUNNY     57  47  69 CALM      30.24S
DEL MAR          N/A     55  49  81 CALM      30.27S
LA JOLLA SCRIP   N/A     58  51  77 CALM      30.25S
FALLBROOK        N/A     52  50  93 E2        30.23S
ESCONDIDO        N/A     56  47  72 SW1       30.26S
SAN MARCOS       N/A     56  47  71 CALM      30.26S
POWAY            N/A     54  48  80 CALM      30.27S

$$

EAST SAN DIEGO COUNTY

CITY           SKY/WX    TMP DP  RH WIND       PRES   REMARKS
RAMONA         SUNNY     52  44  74 E5        30.23S
SANTEE LAKES     N/A     51  47  88 CALM      30.25S
LA MESA          N/A     53  45  76 CALM      30.18S
JAMUL            N/A     51  49  91 CALM      30.26S
DESCANSO N       N/A     55  37  51 CALM      30.23R
CAMPO            N/A     49  39  68 CALM      30.18F

$$

ORANGE COUNTY AND THE LOS ANGELES BASIN

CITY           SKY/WX    TMP DP  RH WIND       PRES   REMARKS
JOHN WAYNE AP  SUNNY     59  46  62 CALM      30.25S
LAGUNA BEACH     N/A     53  49  87 N1        30.20
LAKE FOREST FR   N/A     52  41  66 CALM      30.16R
HUNTINGTON BCH   N/A     59  51  73 CALM      30.27S
LOS ALAMITOS   SUNNY     57  48  71 CALM      30.25S
FULLERTON      SUNNY     58  47  66 CALM      30.25S
LONG BEACH     SUNNY     58  46  64 CALM      30.25F
L.A. AP        MOSUNNY   58  51  78 VRB6      30.25S
L.A. DOWNTOWN  SUNNY     59  50  72 CALM      30.25S

$$

THE INLAND EMPIRE

CITY           SKY/WX    TMP DP  RH WIND       PRES   REMARKS
CORONA         SUNNY     53  44  71 CALM      30.26S
CHINO          SUNNY     55  44  66 CALM      30.27R
ONTARIO        MOSUNNY   54  42  64 CALM      30.25R
SAN BERNARDINO SUNNY     54  39  58 CALM      30.25S
RIVERSIDE AP   SUNNY     53  44  71 CALM      30.25S
MORENO VALLEY    N/A     55  48  76 CALM      28.34S
MARCH ARB      SUNNY     50  46  85 CALM      30.24S
HORSETHIEF CYN   N/A     52  42  69 CALM      30.26S
PERRIS           N/A     47  46  95 CALM      30.27F
HEMET EAST       N/A     49  38  65 CALM      30.30R
FRENCH VALLEY  FAIR      50  41  71 N3        30.25R
TEMECULA         N/A     46  45  93 CALM      30.30R

$$

SAN BERNARDINO AND RIVERSIDE COUNTY MOUNTAINS

CITY           SKY/WX    TMP DP  RH WIND       PRES   REMARKS
BIG BEAR AP    SUNNY     39  19  45 CALM      30.30S
ANGELUS OAKS     N/A     41  31  67 CALM      30.24S
PINE COVE        N/A     49   9  20 CALM      30.30F

$$

SOUTHERN DESERT INCLUDING THE COACHELLA VALLEY

CITY           SKY/WX    TMP DP  RH WIND       PRES   REMARKS
PALM SPRINGS   SUNNY     63  40  42 CALM      30.20R
PALM DESERT      N/A     62  43  49 CALM      26.00
THERMAL        SUNNY     63  41  44 NW3       30.18R
BLYTHE         SUNNY     63  36  36 CALM      30.19R
IMPERIAL AP    SUNNY     60  40  47 S3        30.19S
EL CENTRO NAS  SUNNY     61  37  41 S5        30.20S
YUMA AZ        MOSUNNY   63  42  46 E3        30.19
MEXICALI       SUNNY     63  41  45 CALM      30.20S

$$

UPPER DESERT

CITY           SKY/WX    TMP DP  RH WIND       PRES   REMARKS
VICTORVILLE AP SUNNY     52  34  50 S5        30.22S
HESPERIA         N/A     53  32  44 CALM      30.37R
PALMDALE       SUNNY     58  31  35 SW8       30.22S
LANCASTER      SUNNY     51  33  50 E5        30.22S
EDWARDS AFB    MOSUNNY   43  29  58 CALM      30.20S
DAGGETT        SUNNY     52  33  48 W13       30.21S
29 PALMS N     SUNNY     54  30  40 CALM      30.28R
NEEDLES        SUNNY     60  37  42 SE7       30.20R

$$

REGIONAL REPORTS

CITY           SKY/WX    TMP DP  RH WIND       PRES   REMARKS
SANTA BARBARA  SUNNY     57  50  77 E5        30.26R
SANDBERG       SUNNY     54  10  17 NW9       30.26R
LAS VEGAS NV   MOSUNNY   59  34  39 CALM      30.21R
PHOENIX AZ     SUNNY     60  40  47 E10       30.20R
TIJUANA        SUNNY     55  43  62 CALM      30.27S
ENSENADA NW      N/A     58  32  37 SE2       30.22S

$$

OFFSHORE ISLANDS

CITY           SKY/WX    TMP DP  RH WIND       PRES   REMARKS
CATALINA ARPT  SUNNY     55  49  80 SE5       30.24R
SAN CLEMENTE I MOSUNNY   57  51  80 SW3       30.26R
SAN NICOLAS IS PTSUNNY  N/A N/A N/A NW13      30.25R

$$

MARINE AND OFFSHORE BUOY REPORTS

STATION/POSITION SKY/WX   TEMP    WIND        PRES    VSBY  SWELL
                          AIR SEA DIR/SP/G                  HT/PER/DIR
                          (F)     (DEG/KT/KT) (MB)    (MI)  (FT/S/D)
TANNER BANKS               57 59  320/ 14/ 16 1024.1S         7/290/15
S CLEMENTE BASIN           56 60  270/  6/  8 1024.0R         5/280/14
SAN NICOLAS IS.               56                N/A           5/250/15
SO. S. ROSA ISLA           55 56  310/ 12/ 14 1024.2R         7/260/14
W. S. BARBARA CH           55 56  320/ 10/ 10 1024.7R         5/250/15
M. S. BARBARA CH                                N/A           3/260/ 9
S. MONICA BASIN            58 58   70/  8/ 10 1024.3
S PEDRO CHANNEL               59                N/A           2/240/14
CMP PENDLETON NS              60                N/A           2/210/14
OCEANSIDE OFFSHR              60                N/A           2/190/14
TORREY PINES OTR              61                N/A           3/210/15
POINT LOMA SOUTH              61                N/A           3/180/15

$$





USA.gov is the U.S. government's official web portal to all federal, state and local government web resources and services.